Location: Chillicothe
(39.7950°N, 93.5520°W)
Time: 10:29:07
(UTC-06:00)

Vanguard 3 - Pass Details

Date: 23 October 2019
Orbit: 508 x 3263 km, 33.3° (Epoch: 11 November)

Event Time Altitude Azimuth Distance (km) Brightness Sun altitude
Rises 23:01:04 0° 228° (SW) 3,592 - -51.7°
Reaches altitude 10° 23:04:40 10° 213° (SSW) 2,269 - -52.3°
Maximum altitude 23:08:15 20° 166° (SSE) 1,439 - -52.8°
Drops below altitude 10° 23:11:09 10° 118° (ESE) 1,795 - -53.2°
Sets 23:13:36 0° 99° (E) 2,608 - -53.5°
